Location: Goll?ig?dem
(16.6773°N, 80.7332°E)
Time: 01:15:44
(UTC+00:00)

NOSS 3-1 (C) - Pass Details

Date: 19 May 2025
Orbit: 632 x 1571 km, 63.4° (Epoch: 17 June)

Event Time Altitude Azimuth Distance (km) Brightness Sun altitude
Rises 14:46:18 0° 210° (SSW) 2,945 6.0 -23.3°
Reaches altitude 10° 14:48:35 10° 213° (SSW) 2,009 5.2 -23.7°
Maximum altitude 14:52:58 66° 296° (WNW) 692 2.9 -24.6°
Drops below altitude 10° 14:57:35 10° 18° (NNE) 2,106 5.4 -25.6°
Sets 15:00:02 0° 21° (NNE) 3,104 6.3 -26.1°
